Weather in Uzyar

Russia / Perm Krai     56°29′29″N   54°46′35″E
temp.,
°C
wind,
m/s
gust,
m/s
humid.,
%
clouds,
%
prec.,
mm/h
press.,
hPa
HPBL,
m
7 march, sun
sun723:00−15wsw239869 0.1 101223
02:00−16wsw229894 0.1 101221
05:00−17sw229893 0.1 101120
08:00−17wsw229795 0.1 101039
11:00−13wsw239194 0.1 1010276
14:00−10wsw2483100 0.1 1009810
17:00−10wsw3484100 0.3 1008706
20:00−15ssw339793 0.1 100944
8 march, mon
mon823:00−17s339973 0.1 100940
02:00−17sse369995 0.0 1006116
05:00−15sse5109698 0.1 1003314
08:00−13sse61194100 0.9 1000519
11:00−8sse71293100 1.8 997765
14:00−4s71195100 1.2 995846
17:00−5sw91583100 2.3 9941319
20:00−7sw81693100 0.6 9961243
9 march, tue
tue923:00−7wsw91689100 1.6 999958
02:00−9wsw51293100 0.1 1002451
05:00−14ssw3598100 0.1 100385
08:00−15s129799 0.0 100220
11:00−9sw1194100 1.1 1002210
14:00−7wnw4688100 0.8 1004674
17:00−7w4686100 0.9 1006892
20:00−10wnw3595100 0.1 1007115
10 march, wed
wed1023:00−15nw229889 0.1 100920
02:00−17n359783 0.0 100982
05:00−21n489888 0.1 1010154
08:00−24n379690 0.0 1011165
11:00−22n479388 0.0 1012257
14:00−19n578844 0.0 1013417
17:00−18nnw478322 0.0 1014500
20:00−23nnw34900 0.0 101552
11 march, thu
thu1123:00−25nw23940 0.0 101724
02:00−26wnw23970 0.0 101725
05:00−27w33990 0.0 101839
08:00−26wsw379973 0.0 1017170
11:00−21wsw589686 0.0 1017337
14:00−18wsw5893100 0.1 1017504
17:00−15wsw5891100 0.2 1018592
20:00−15wsw4994100 0.1 1018394